Location: Berlin
(52.5170°N, 13.4000°E)
Time: 02:09:43
(UTC+02:00)

ISS - Pass Details

Date: 16 July 2018
Orbit: 402 x 408 km, 51.6° (Epoch: 17 July)

Event Time Altitude Azimuth Distance (km) Brightness Sun altitude
Rises 04:05:48 0° 277° (W) 2,332 -0.3 -7.1°
Reaches altitude 10° 04:07:54 10° 274° (W) 1,471 -1.3 -6.8°
Maximum altitude 04:11:10 64° 193° (SSW) 457 -3.8 -6.5°
Drops below altitude 10° 04:14:26 10° 111° (ESE) 1,470 -0.7 -6.2°
Sets 04:16:32 0° 108° (ESE) 2,330 0.4 -6.0°
